• In Österreich
  • Länderverzeichnis
  • Für 7 Tage
  • Wassertemperatur
  • Satellitenkarten
  • Wetterkarte
  • News
  • Widgets
  • user-avatar
    Anmelden

    Stündliche Wetter Wieliczka

    Heute, 16 Juli, Montag

    Zeit Temperatur Niederschläge Wind Luftdruck Luftfeuchtigkeit
    00:00 +16°C° 0,4 mm 2 m/S 735 mmHg 91%
    01:00 +16°C° 0,4 mm 2 m/S 735 mmHg 93%
    02:00 +16°C° 0 mm 2 m/S 734 mmHg 93%
    03:00 +16°C° 0 mm 2 m/S 734 mmHg 93%
    04:00 +14°C° 0 mm 3 m/S 734 mmHg 94%
    05:00 +17°C° 0 mm 3 m/S 734 mmHg 90%
    06:00 +18°C° 0 mm 3 m/S 734 mmHg 86%
    07:00 +19°C° 0 mm 4 m/S 734 mmHg 82%
    08:00 +20°C° 0,2 mm 4 m/S 734 mmHg 77%
    09:00 +22°C° 0,2 mm 4 m/S 734 mmHg 71%
    10:00 +23°C° 0,2 mm 5 m/S 734 mmHg 66%
    11:00 +23°C° 0,6 mm 5 m/S 733 mmHg 66%
    12:00 +25°C° 0,6 mm 4 m/S 733 mmHg 66%
    13:00 +25°C° 0,6 mm 4 m/S 733 mmHg 66%
    14:00 +25°C° 0,6 mm 4 m/S 733 mmHg 68%
    15:00 +25°C° 0,6 mm 4 m/S 732 mmHg 70%
    16:00 +25°C° 0,6 mm 4 m/S 732 mmHg 72%
    17:00 +22°C° 0,5 mm 4 m/S 732 mmHg 76%
    18:00 +21°C° 0,5 mm 3 m/S 732 mmHg 80%
    19:00 +20°C° 0,5 mm 3 m/S 732 mmHg 85%
    20:00 +19°C° 0,3 mm 3 m/S 731 mmHg 87%
    21:00 +18°C° 0,3 mm 2 m/S 731 mmHg 89%
    22:00 +17°C° 0,3 mm 2 m/S 731 mmHg 92%
    23:00 +17°C° 0 mm 2 m/S 731 mmHg 92%

    Morgen, 17 Juli, Dienstag

    Zeit Temperatur Niederschläge Wind Luftdruck Luftfeuchtigkeit
    00:00 +17°C° 0 mm 3 m/S 731 mmHg 93%
    01:00 +16°C° 0 mm 3 m/S 731 mmHg 94%
    02:00 +16°C° 0 mm 3 m/S 730 mmHg 94%
    03:00 +16°C° 0 mm 3 m/S 730 mmHg 94%
    04:00 +16°C° 0 mm 3 m/S 730 mmHg 94%
    05:00 +17°C° 0,2 mm 4 m/S 730 mmHg 92%
    06:00 +17°C° 0,2 mm 4 m/S 730 mmHg 90%
    07:00 +17°C° 0,2 mm 5 m/S 730 mmHg 89%
    08:00 +19°C° 0,3 mm 5 m/S 730 mmHg 86%
    09:00 +19°C° 0,3 mm 6 m/S 730 mmHg 83%
    10:00 +20°C° 0,3 mm 6 m/S 730 mmHg 80%
    11:00 +20°C° 0,2 mm 6 m/S 729 mmHg 82%
    12:00 +20°C° 0,2 mm 6 m/S 729 mmHg 84%
    13:00 +19°C° 0,2 mm 5 m/S 729 mmHg 86%
    14:00 +19°C° 0,1 mm 5 m/S 729 mmHg 86%
    15:00 +19°C° 0,1 mm 5 m/S 729 mmHg 86%
    16:00 +19°C° 0,1 mm 5 m/S 729 mmHg 87%
    17:00 +19°C° 0,1 mm 5 m/S 729 mmHg 88%
    18:00 +17°C° 0,1 mm 5 m/S 729 mmHg 90%
    19:00 +18°C° 0,1 mm 4 m/S 729 mmHg 92%
    20:00 +18°C° 0,2 mm 4 m/S 729 mmHg 93%
    21:00 +18°C° 0,2 mm 4 m/S 729 mmHg 93%
    22:00 +17°C° 0,2 mm 4 m/S 729 mmHg 94%
    23:00 +17°C° 1,5 mm 4 m/S 729 mmHg 95%

    übermorgen, 18 Juli, Mittwoch

    Zeit Temperatur Niederschläge Wind Luftdruck Luftfeuchtigkeit
    00:00 +17°C° 1,5 mm 4 m/S 729 mmHg 95%
    01:00 +17°C° 1,5 mm 4 m/S 728 mmHg 96%
    02:00 +16°C° 1,7 mm 5 m/S 728 mmHg 96%
    03:00 +17°C° 1,7 mm 5 m/S 728 mmHg 96%
    04:00 +17°C° 1,7 mm 5 m/S 728 mmHg 96%
    05:00 +17°C° 1,7 mm 5 m/S 728 mmHg 95%
    06:00 +17°C° 1,7 mm 5 m/S 728 mmHg 95%
    07:00 +17°C° 1,7 mm 5 m/S 728 mmHg 95%
    08:00 +19°C° 1,6 mm 5 m/S 728 mmHg 95%
    09:00 +19°C° 1,6 mm 4 m/S 729 mmHg 95%
    10:00 +19°C° 1,6 mm 4 m/S 729 mmHg 95%
    11:00 +20°C° 1 mm 4 m/S 729 mmHg 94%
    12:00 +20°C° 1 mm 4 m/S 729 mmHg 93%
    13:00 +20°C° 1 mm 4 m/S 729 mmHg 92%
    14:00 +21°C° 0,3 mm 5 m/S 730 mmHg 92%
    15:00 +21°C° 0,3 mm 5 m/S 730 mmHg 91%
    16:00 +21°C° 0,3 mm 5 m/S 730 mmHg 91%
    17:00 +20°C° 0,1 mm 5 m/S 730 mmHg 91%
    18:00 +20°C° 0,1 mm 5 m/S 731 mmHg 92%
    19:00 +20°C° 0,1 mm 5 m/S 731 mmHg 93%
    20:00 +19°C° 0,3 mm 4 m/S 731 mmHg 94%
    21:00 +19°C° 0,3 mm 4 m/S 731 mmHg 95%
    22:00 +19°C° 0,3 mm 4 m/S 732 mmHg 95%
    23:00 +19°C° 0,1 mm 4 m/S 732 mmHg 95%

    19 Juli, Donnerstag

    Zeit Temperatur Niederschläge Wind Luftdruck Luftfeuchtigkeit
    00:00 +19°C° 0,1 mm 4 m/S 732 mmHg 95%
    01:00 +19°C° 0,1 mm 4 m/S 732 mmHg 95%
    02:00 +19°C° 0,1 mm 4 m/S 732 mmHg 95%
    03:00 +19°C° 0,1 mm 4 m/S 732 mmHg 95%
    04:00 +19°C° 0,1 mm 4 m/S 732 mmHg 95%
    05:00 +19°C° 0,1 mm 4 m/S 733 mmHg 95%
    06:00 +19°C° 0,1 mm 4 m/S 733 mmHg 95%
    07:00 +19°C° 0,1 mm 4 m/S 733 mmHg 95%
    08:00 +19°C° 0,1 mm 4 m/S 734 mmHg 94%
    09:00 +19°C° 0,1 mm 4 m/S 734 mmHg 93%
    10:00 +19°C° 0,1 mm 4 m/S 734 mmHg 91%
    11:00 +20°C° 0 mm 4 m/S 734 mmHg 89%
    12:00 +21°C° 0 mm 4 m/S 734 mmHg 87%
    13:00 +21°C° 0 mm 5 m/S 734 mmHg 84%
    14:00 +21°C° 0 mm 4 m/S 734 mmHg 84%
    15:00 +21°C° 0 mm 4 m/S 734 mmHg 84%
    16:00 +21°C° 0 mm 4 m/S 734 mmHg 83%
    17:00 +21°C° 0 mm 3 m/S 734 mmHg 85%
    18:00 +20°C° 0 mm 3 m/S 734 mmHg 86%
    19:00 +20°C° 0 mm 2 m/S 734 mmHg 87%
    20:00 +19°C° 0 mm 2 m/S 734 mmHg 90%
    21:00 +19°C° 0 mm 2 m/S 735 mmHg 92%
    22:00 +18°C° 0 mm 2 m/S 735 mmHg 94%
    23:00 +18°C° 0 mm 2 m/S 735 mmHg 94%

    20 Juli, Freitag

    Zeit Temperatur Niederschläge Wind Luftdruck Luftfeuchtigkeit
    00:00 +17°C° 0 mm 2 m/S 735 mmHg 95%
    01:00 +17°C° 0 mm 2 m/S 735 mmHg 95%
    02:00 +17°C° 0 mm 2 m/S 734 mmHg 96%
    03:00 +17°C° 0 mm 2 m/S 734 mmHg 96%
    04:00 +17°C° 0 mm 2 m/S 734 mmHg 96%
    05:00 +18°C° 0,1 mm 2 m/S 734 mmHg 94%
    06:00 +19°C° 0,1 mm 2 m/S 735 mmHg 93%
    07:00 +19°C° 0,1 mm 2 m/S 735 mmHg 91%
    08:00 +20°C° 0,1 mm 2 m/S 735 mmHg 89%
    09:00 +20°C° 0,1 mm 2 m/S 735 mmHg 87%
    10:00 +21°C° 0,1 mm 3 m/S 735 mmHg 85%
    11:00 +22°C° 0,1 mm 3 m/S 735 mmHg 82%
    12:00 +24°C° 0,1 mm 3 m/S 735 mmHg 78%
    13:00 +25°C° 0,1 mm 3 m/S 734 mmHg 75%
    14:00 +25°C° 0 mm 3 m/S 734 mmHg 73%
    15:00 +25°C° 0 mm 3 m/S 734 mmHg 71%
    16:00 +26°C° 0 mm 2 m/S 734 mmHg 69%
    17:00 +25°C° 0 mm 2 m/S 734 mmHg 74%
    18:00 +24°C° 0 mm 2 m/S 734 mmHg 78%
    19:00 +23°C° 0 mm 1 m/S 734 mmHg 83%
    20:00 +22°C° 0 mm 1 m/S 734 mmHg 86%
    21:00 +21°C° 0 mm 1 m/S 734 mmHg 88%
    22:00 +20°C° 0 mm 1 m/S 734 mmHg 91%
    23:00 +19°C° 0 mm 1 m/S 734 mmHg 91%

    21 Juli, Samstag

    Zeit Temperatur Niederschläge Wind Luftdruck Luftfeuchtigkeit
    00:00 +19°C° 0 mm 1 m/S 734 mmHg 92%
    01:00 +19°C° 0 mm 1 m/S 734 mmHg 92%
    02:00 +19°C° 0 mm 1 m/S 734 mmHg 92%
    03:00 +18°C° 0 mm 1 m/S 734 mmHg 93%
    04:00 +18°C° 0 mm 1 m/S 734 mmHg 93%
    05:00 +20°C° 0 mm 1 m/S 734 mmHg 88%
    06:00 +19°C° 0 mm 0 m/S 734 mmHg 84%
    07:00 +21°C° 0 mm 0 m/S 735 mmHg 80%
    08:00 +24°C° 0 mm 1 m/S 735 mmHg 75%
    09:00 +26°C° 0 mm 1 m/S 735 mmHg 70%
    10:00 +27°C° 0 mm 1 m/S 735 mmHg 65%
    11:00 +28°C° 0,1 mm 1 m/S 735 mmHg 62%
    12:00 +28°C° 0,1 mm 1 m/S 734 mmHg 60%
    13:00 +29°C° 0,1 mm 1 m/S 734 mmHg 57%
    14:00 +29°C° 0,3 mm 1 m/S 734 mmHg 59%
    15:00 +28°C° 0,3 mm 1 m/S 734 mmHg 60%
    16:00 +28°C° 0,3 mm 1 m/S 734 mmHg 62%
    17:00 +27°C° 0,3 mm 1 m/S 734 mmHg 68%
    18:00 +25°C° 0,3 mm 1 m/S 734 mmHg 73%
    19:00 +24°C° 0,3 mm 1 m/S 733 mmHg 79%
    20:00 +23°C° 0,1 mm 1 m/S 733 mmHg 81%
    21:00 +22°C° 0,1 mm 1 m/S 733 mmHg 83%
    22:00 +21°C° 0,1 mm 1 m/S 733 mmHg 85%
    23:00 +21°C° 0,2 mm 1 m/S 733 mmHg 86%
    Mehr zeigen